FW6831 Weather Reports


Display with metric or nautical units.
time (UTC)temp
F
wind
direction
speed
MPH
gust
MPH
rain 1hr
in
rain 24hr
in
rain mn
in
humidity
%
barometer
mb
20260906023056 92 254 1.0 7.0 0.00 0.00 0.00 36 1014.2
20260906022544 91 316 3.0 7.0 0.00 0.00 0.00 36 1014.4
20260906022045 90 235 2.0 6.0 0.00 0.00 0.00 38 1014.3
20260906021554 90 247 2.0 7.0 0.00 0.00 0.00 38 1014.4
20260906021043 90 35 2.0 7.0 0.00 0.00 0.00 37 1014.7
20260906020542 91 207 3.0 7.0 0.00 0.00 0.00 36 1014.7
20260906020105 90 114 1.0 9.0 0.00 0.00 0.00 38 1014.6
20260906015543 89 316 3.0 9.0 0.00 0.00 0.00 39 1014.7
20260906015043 90 329 2.0 8.0 0.00 0.00 0.00 38 1014.9
20260906014558 90 238 2.0 8.0 0.00 0.00 0.00 39 1015.0
20260906014044 89 209 1.0 6.0 0.00 0.00 0.00 38 1015.2
20260906013543 90 251 1.0 6.0 0.00 0.00 0.00 39 1015.4
20260906013056 89 252 2.0 6.0 0.00 0.00 0.00 40 1015.4
20260906012543 88 342 2.0 8.0 0.00 0.00 0.00 40 1015.5
20260906012044 88 174 1.0 9.0 0.00 0.00 0.00 41 1015.6
20260906011603 88 306 2.0 9.0 0.00 0.00 0.00 40 1015.6
20260906011044 88 237 2.0 7.0 0.00 0.00 0.00 40 1015.7
20260906010543 88 243 1.0 7.0 0.00 0.00 0.00 40 1015.7
20260906010104 88 286 2.0 7.0 0.00 0.00 0.00 40 1015.7
20260906005543 87 240 2.0 12.0 0.00 0.00 0.00 40 1015.8
20260906005043 86 242 5.0 12.0 0.00 0.00 0.00 40 1015.9
20260906004602 87 208 5.0 9.0 0.00 0.00 0.00 40 1016.1
20260906004042 88 309 3.0 7.0 0.00 0.00 0.00 39 1016.2
20260906003543 88 234 2.0 7.0 0.00 0.00 0.00 40 1016.3
20260906003105 87 304 0.0 7.0 0.00 0.00 0.00 43 1016.3
20260906002543 86 249 3.0 7.0 0.00 0.00 0.00 42 1016.3
20260906002042 86 334 0.0 7.0 0.00 0.00 0.00 43 1016.3
20260906001559 87 203 1.0 7.0 0.00 0.00 0.00 43 1016.3
20260906001043 86 0 0.0 6.0 0.00 0.00 0.00 50 1016.4
20260906000543 84 346 0.0 6.0 0.00 0.00 0.00 53 1016.4
20260906000101 83 233 1.0 4.0 0.00 0.00 0.00 55 1016.4
20260905235543 82 97 1.0 3.0 0.00 0.00 0.00 59 1016.3
20260905235043 82 187 0.0 7.0 0.00 0.00 0.00 62 1016.3
20260905234604 82 156 1.0 7.0 0.00 0.00 0.00 62 1016.5
20260905234044 84 176 0.0 0.0 0.00 0.00 0.00 60 1016.5
20260905233544 84 0 0.0 0.0 0.00 0.00 0.00 61 1016.3
20260905233102 83 0 0.0 1.0 0.00 0.00 0.00 62 1016.3
20260905232544 82 0 0.0 3.0 0.00 0.00 0.00 64 1016.2
20260905232044 81 0 0.0 6.0 0.00 0.00 0.00 65 1016.3
20260905231600 80 294 1.0 6.0 0.00 0.00 0.00 64 1016.3
20260905231044 80 0 0.0 0.0 0.00 0.00 0.00 66 1016.4
20260905230544 79 0 0.0 0.0 0.00 0.00 0.00 71 1016.2
20260905230057 77 0 0.0 0.0 0.00 0.00 0.00 73 1016.3
20260905225544 76 0 0.0 0.0 0.00 0.00 0.00 76 1016.3
20260905225043 75 0 0.0 1.0 0.00 0.00 0.00 75 1016.4
20260905224609 75 0 0.0 1.0 0.00 0.00 0.00 74 1016.5
20260905224045 74 0 0.0 1.0 0.00 0.00 0.00 77 1016.6
20260905223544 73 0 0.0 1.0 0.00 0.00 0.00 78 1016.7
20260905223100 72 0 0.0 2.0 0.00 0.00 0.00 80 1016.9
20260905222545 72 0 0.0 3.0 0.00 0.00 0.00 80 1017.0
20260905222041 71 37 0.0 3.0 0.00 0.00 0.00 83 1016.8
20260905221603 70 0 1.0 3.0 0.00 0.00 0.00 84 1017.1
20260905221044 69 72 0.0 2.0 0.00 0.00 0.00 89 1017.1
20260905220543 68 89 0.0 2.0 0.00 0.00 0.00 89 1017.2
20260905220106 68 32 0.0 2.0 0.00 0.00 0.00 90 1017.1
20260905215544 68 169 1.0 4.0 0.00 0.00 0.00 91 1017.1
20260905215044 67 173 1.0 4.0 0.00 0.00 0.00 91 1017.2
20260905214600 67 195 0.0 5.0 0.00 0.00 0.00 92 1017.0
20260905214044 67 191 1.0 5.0 0.00 0.00 0.00 93 1016.9
20260905213544 66 187 1.0 4.0 0.00 0.00 0.00 94 1016.9
20260905213102 66 180 0.0 2.0 0.00 0.00 0.00 96 1016.8
20260905212544 65 155 0.0 3.0 0.00 0.00 0.00 97 1016.7
20260905212040 65 193 0.0 3.0 0.00 0.00 0.00 98 1016.6
20260905211627 64 153 0.0 2.0 0.00 0.00 0.00 98 1016.4
20260905211045 63 149 1.0 2.0 0.00 0.00 0.00 98 1016.3
20260905210544 62 276 1.0 2.0 0.00 0.00 0.00 98 1016.1
20260905210122 62 338 1.0 2.0 0.00 0.00 0.00 98 1016.1
20260905205544 61 309 0.0 2.0 0.00 0.00 0.00 97 1016.2
20260905205044 61 306 0.0 2.0 0.00 0.00 0.00 97 1016.2
20260905204608 61 301 1.0 2.0 0.00 0.00 0.00 97 1016.2
20260905204044 62 321 1.0 2.0 0.00 0.00 0.00 97 1016.2
20260905203540 62 295 1.0 2.0 0.00 0.00 0.00 98 1016.2
20260905203118 61 316 1.0 2.0 0.00 0.00 0.00 97 1016.1
20260905202543 61 308 0.0 2.0 0.00 0.00 0.00 97 1016.3
20260905202043 61 320 1.0 2.0 0.00 0.00 0.00 97 1016.3
20260905201559 61 318 0.0 1.0 0.00 0.00 0.00 97 1016.5
20260905201042 61 0 0.0 1.0 0.00 0.00 0.00 97 1016.5
20260905200543 61 313 0.0 1.0 0.00 0.00 0.00 97 1016.4
20260905200104 61 314 0.0 1.0 0.00 0.00 0.00 97 1016.4
20260905195543 61 0 0.0 1.0 0.00 0.00 0.00 97 1016.5
20260905195042 61 0 0.0 0.0 0.00 0.00 0.00 97 1016.6
20260905194558 61 0 0.0 1.0 0.00 0.00 0.00 97 1016.5
20260905194043 61 0 0.0 1.0 0.00 0.00 0.00 97 1016.6
20260905193543 62 0 0.0 1.0 0.00 0.00 0.00 97 1016.6
20260905193057 62 0 0.0 1.0 0.00 0.00 0.00 97 1016.6
20260905192542 63 310 0.0 4.0 0.00 0.00 0.00 97 1016.7
20260905192043 63 23 0.0 4.0 0.00 0.00 0.00 97 1016.7
20260905191554 63 184 1.0 4.0 0.00 0.00 0.00 98 1016.8
20260905191043 63 0 0.0 2.0 0.00 0.00 0.00 98 1016.2
20260905190543 63 0 1.0 2.0 0.00 0.00 0.00 98 1016.3
20260905190053 62 189 0.0 1.0 0.00 0.00 0.00 98 1016.6
20260905185544 62 0 0.0 1.0 0.00 0.00 0.00 98 1016.5
20260905185042 62 0 0.0 1.0 0.00 0.00 0.00 97 1016.3
20260905184600 62 0 0.0 1.0 0.00 0.00 0.00 97 1016.3
20260905184042 62 0 0.0 1.0 0.00 0.00 0.00 97 1016.4
20260905183542 62 311 0.0 3.0 0.00 0.00 0.00 97 1016.2
20260905183104 62 307 1.0 3.0 0.00 0.00 0.00 98 1016.3
20260905182542 62 297 0.0 1.0 0.00 0.00 0.00 98 1016.4
20260905182042 62 0 0.0 0.0 0.00 0.00 0.00 98 1016.6
20260905181609 62 0 0.0 0.0 0.00 0.00 0.00 98 1016.6
20260905181041 62 0 0.0 0.0 0.00 0.00 0.00 97 1016.8
20260905180541 62 0 0.0 0.0 0.00 0.00 0.00 97 1016.8
20260905180109 61 0 0.0 0.0 0.00 0.00 0.00 98 1016.5
20260905175545 61 0 0.0 0.0 0.00 0.00 0.00 97 1016.4
20260905175043 61 0 0.0 0.0 0.00 0.00 0.00 97 1016.2
20260905174559 60 0 0.0 0.0 0.00 0.00 0.00 97 1016.0
20260905174042 60 0 0.0 0.0 0.00 0.00 0.00 97 1015.9
20260905173547 60 0 0.0 0.0 0.00 0.00 0.00 97 1015.9
20260905173057 60 0 0.0 0.0 0.00 0.00 0.00 97 1015.8
20260905172544 60 0 0.0 0.0 0.00 0.00 0.00 97 1015.7
20260905172043 60 0 0.0 0.0 0.00 0.00 0.00 97 1015.8
20260905171554 60 0 0.0 0.0 0.00 0.00 0.00 97 1015.7
20260905171043 60 0 0.0 0.0 0.00 0.00 0.00 97 1015.8
20260905170541 60 0 0.0 0.0 0.00 0.00 0.00 97 1015.7
20260905170058 60 0 0.0 0.0 0.00 0.00 0.00 97 1015.8
20260905165543 60 0 0.0 0.0 0.00 0.00 0.00 97 1015.8
20260905165043 61 0 0.0 0.0 0.00 0.00 0.00 97 1015.8
20260905164559 60 0 0.0 0.0 0.00 0.00 0.00 97 1015.9
20260905164045 61 0 0.0 0.0 0.00 0.00 0.00 97 1015.8
20260905163541 61 0 0.0 0.0 0.00 0.00 0.00 97 1015.9
20260905163058 60 0 0.0 0.0 0.00 0.00 0.00 97 1015.9
20260905162543 60 0 0.0 0.0 0.00 0.00 0.00 96 1015.9
20260905162041 61 0 0.0 0.0 0.00 0.00 0.00 96 1016.0
20260905161602 61 0 0.0 0.0 0.00 0.00 0.00 97 1016.0
20260905161042 61 0 0.0 0.0 0.00 0.00 0.00 97 1015.9
20260905160542 60 0 0.0 0.0 0.00 0.00 0.00 96 1015.9
20260905160117 60 0 0.0 0.0 0.00 0.00 0.00 96 1016.1
20260905155544 60 0 0.0 0.0 0.00 0.00 0.00 96 1016.1
20260905155046 61 0 0.0 0.0 0.00 0.00 0.00 97 1016.1
20260905154602 61 0 0.0 0.0 0.00 0.00 0.00 97 1016.1
20260905154043 61 0 0.0 0.0 0.00 0.00 0.00 96 1016.2
20260905153542 61 0 0.0 0.0 0.00 0.00 0.00 96 1016.2
20260905153056 61 0 0.0 0.0 0.00 0.00 0.00 96 1016.3
20260905152543 61 0 0.0 0.0 0.00 0.00 0.00 96 1016.4
20260905152045 61 0 0.0 1.0 0.00 0.00 0.00 96 1016.4
20260905151609 61 0 0.0 1.0 0.00 0.00 0.00 96 1016.4
20260905151043 61 0 0.0 1.0 0.00 0.00 0.00 96 1016.5
20260905150545 61 312 0.0 1.0 0.00 0.00 0.00 96 1016.5
20260905150057 62 312 0.0 1.0 0.00 0.00 0.00 96 1016.5
20260905145547 62 0 0.0 1.0 0.00 0.00 0.00 96 1016.6
20260905145046 62 0 0.0 1.0 0.00 0.00 0.00 96 1016.5
20260905144558 62 312 0.0 0.0 0.00 0.00 0.00 96 1016.6
20260905144046 62 0 0.0 0.0 0.00 0.00 0.00 96 1016.6
20260905143543 62 0 0.0 1.0 0.00 0.00 0.00 96 1016.6
20260905143106 62 0 0.0 1.0 0.00 0.00 0.00 95 1016.6
20260905142547 63 313 0.0 1.0 0.00 0.00 0.00 96 1016.6
20260905142044 63 328 0.0 0.0 0.00 0.00 0.00 96 1016.5
20260905141600 62 0 0.0 0.0 0.00 0.00 0.00 95 1016.7
20260905141046 63 0 0.0 0.0 0.00 0.00 0.00 95 1016.9
20260905140546 63 0 0.0 0.0 0.00 0.00 0.00 95 1017.0
20260905135544 63 0 0.0 0.0 0.00 0.00 0.00 95 1017.1
20260905135043 64 0 0.0 0.0 0.00 0.00 0.00 95 1017.1
20260905134604 64 0 0.0 0.0 0.00 0.00 0.00 95 1017.2
20260905134045 64 0 0.0 0.0 0.00 0.00 0.00 95 1017.0
20260905133543 64 0 0.0 0.0 0.00 0.00 0.00 95 1017.1
20260905133057 64 0 0.0 0.0 0.00 0.00 0.00 95 1017.1
20260905132544 64 0 0.0 0.0 0.00 0.00 0.00 95 1017.1
20260905132048 64 0 0.0 0.0 0.00 0.00 0.00 95 1017.0
20260905131604 64 0 0.0 0.0 0.00 0.00 0.00 95 1017.2
20260905131044 64 250 0.0 1.0 0.00 0.00 0.00 94 1017.2
20260905130545 64 0 0.0 1.0 0.00 0.00 0.00 94 1017.2
20260905130101 64 249 0.0 1.0 0.00 0.00 0.00 94 1017.0
20260905125544 65 0 0.0 0.0 0.00 0.00 0.00 94 1017.0
20260905125043 65 0 0.0 0.0 0.00 0.00 0.00 94 1017.1
20260905124556 65 0 0.0 0.0 0.00 0.00 0.00 94 1017.1
20260905124044 65 0 0.0 0.0 0.00 0.00 0.00 94 1017.1
20260905123544 65 0 0.0 0.0 0.00 0.00 0.00 93 1017.2
20260905123058 65 0 0.0 0.0 0.00 0.00 0.00 93 1017.1
20260905122544 65 0 0.0 1.0 0.00 0.00 0.00 93 1017.1
20260905122045 65 0 0.0 1.0 0.00 0.00 0.00 93 1017.0
20260905121603 65 0 0.0 1.0 0.00 0.00 0.00 93 1017.0
20260905121045 65 0 0.0 0.0 0.00 0.00 0.00 92 1017.0
20260905120543 65 0 0.0 0.0 0.00 0.00 0.00 92 1017.0
20260905120110 65 0 0.0 0.0 0.00 0.00 0.00 92 1016.9
20260905115544 65 0 0.0 0.0 0.00 0.00 0.00 91 1017.0
20260905115044 66 0 0.0 0.0 0.00 0.00 0.00 92 1017.0
20260905114557 66 0 0.0 0.0 0.00 0.00 0.00 92 1017.1
20260905114044 66 0 0.0 0.0 0.00 0.00 0.00 91 1017.0
20260905113544 66 0 0.0 0.0 0.00 0.00 0.00 91 1017.0
20260905113100 66 0 0.0 0.0 0.00 0.00 0.00 90 1017.0
20260905112544 67 0 0.0 0.0 0.00 0.00 0.00 90 1017.0
20260905112043 67 0 0.0 0.0 0.00 0.00 0.00 90 1017.1
20260905111608 67 0 0.0 1.0 0.00 0.00 0.00 90 1017.1
20260905111044 67 0 0.0 1.0 0.00 0.00 0.00 89 1017.1
20260905110544 68 0 0.0 1.0 0.00 0.00 0.00 89 1017.1
20260905110101 68 0 0.0 1.0 0.00 0.00 0.00 89 1017.1
20260905105546 68 0 0.0 0.0 0.00 0.00 0.00 88 1017.2
20260905105043 68 0 0.0 0.0 0.00 0.00 0.00 88 1017.1
20260905104600 69 0 0.0 1.0 0.00 0.00 0.00 87 1017.0
20260905104044 69 0 0.0 1.0 0.00 0.00 0.00 87 1017.0
20260905103544 69 0 0.0 1.0 0.00 0.00 0.00 86 1017.0
20260905103102 69 0 0.0 2.0 0.00 0.00 0.00 86 1017.1
20260905102545 70 174 0.0 2.0 0.00 0.00 0.00 86 1017.1
20260905102044 70 155 0.0 3.0 0.00 0.00 0.00 85 1017.0
20260905101556 70 161 0.0 3.0 0.00 0.00 0.00 85 1016.8
20260905101044 70 186 0.0 1.0 0.00 0.00 0.00 84 1016.9
20260905100544 71 32 0.0 4.0 0.00 0.00 0.00 83 1016.9
20260905095543 72 0 0.0 5.0 0.00 0.00 0.00 82 1016.9
20260905095043 72 174 1.0 5.0 0.00 0.00 0.00 82 1016.9
20260905094558 72 0 0.0 4.0 0.00 0.00 0.00 82 1016.9
20260905094044 72 117 0.0 4.0 0.00 0.00 0.00 81 1016.8
20260905093544 72 135 0.0 4.0 0.00 0.00 0.00 81 1016.8
20260905093059 72 0 0.0 5.0 0.00 0.00 0.00 81 1016.9
20260905092546 72 0 0.0 6.0 0.00 0.00 0.00 80 1016.9
20260905092043 72 0 0.0 6.0 0.00 0.00 0.00 80 1016.8
20260905091619 73 238 0.0 6.0 0.00 0.00 0.00 79 1016.9
20260905091041 73 231 0.0 6.0 0.00 0.00 0.00 79 1016.8
20260905090543 73 0 0.0 8.0 0.00 0.00 0.00 79 1016.8
20260905090120 73 39 0.0 8.0 0.00 0.00 0.00 79 1016.7
20260905085545 73 0 1.0 8.0 0.00 0.00 0.00 79 1016.6
20260905085045 73 0 0.0 4.0 0.00 0.00 0.00 79 1016.6
20260905084610 73 0 0.0 6.0 0.00 0.00 0.00 78 1016.6
20260905084045 73 257 0.0 6.0 0.00 0.00 0.00 78 1016.5
20260905083545 73 176 1.0 6.0 0.00 0.00 0.00 78 1016.5
20260905083057 73 0 0.0 4.0 0.00 0.00 0.00 77 1016.5
20260905082544 73 202 0.0 4.0 0.00 0.00 0.00 76 1016.4
20260905082044 73 0 0.0 3.0 0.00 0.00 0.00 75 1016.4
20260905081603 73 0 0.0 2.0 0.00 0.00 0.00 75 1016.4
20260905081044 73 0 0.0 2.0 0.00 0.00 0.00 74 1016.4
20260905080547 73 0 0.0 2.0 0.00 0.00 0.00 74 1016.4
20260905080056 74 0 0.0 2.0 0.00 0.00 0.00 73 1016.3
20260905075543 74 0 0.0 4.0 0.00 0.00 0.00 74 1016.3
20260905075043 74 72 0.0 4.0 0.00 0.00 0.00 74 1016.2
20260905074601 74 135 0.0 3.0 0.00 0.00 0.00 74 1016.2
20260905074045 75 0 0.0 4.0 0.00 0.00 0.00 73 1016.2
20260905073544 75 91 0.0 4.0 0.00 0.00 0.00 73 1016.2
20260905073116 75 0 0.0 2.0 0.00 0.00 0.00 73 1016.2
20260905072544 75 0 0.0 4.0 0.00 0.00 0.00 73 1016.2
20260905072044 76 0 0.0 6.0 0.00 0.00 0.00 73 1016.1
20260905071600 76 332 0.0 6.0 0.00 0.00 0.00 72 1016.0
20260905071045 76 12 1.0 5.0 0.00 0.00 0.00 71 1016.0
20260905070544 77 27 1.0 5.0 0.00 0.00 0.00 71 1016.0
20260905070117 77 198 0.0 5.0 0.00 0.00 0.00 71 1015.9
20260905065548 78 333 0.0 6.0 0.00 0.00 0.00 71 1016.0
20260905065043 78 0 2.0 6.0 0.00 0.00 0.00 70 1016.0
20260905064603 78 193 2.0 6.0 0.00 0.00 0.00 70 1016.0
20260905064044 78 1 1.0 5.0 0.00 0.00 0.00 69 1016.0
20260905063544 79 96 1.0 6.0 0.00 0.00 0.00 69 1016.1
20260905063101 79 188 0.0 6.0 0.00 0.00 0.00 68 1016.0
20260905062545 80 13 1.0 7.0 0.00 0.00 0.00 67 1015.9
20260905062044 80 314 2.0 7.0 0.00 0.00 0.00 67 1015.9
20260905061620 80 108 2.0 7.0 0.00 0.00 0.00 66 1015.8
20260905061043 80 350 2.0 6.0 0.00 0.00 0.00 66 1015.8
20260905060543 81 0 0.0 7.0 0.00 0.00 0.00 66 1015.9
20260905060117 81 124 0.0 7.0 0.00 0.00 0.00 66 1015.9
20260905055543 81 110 2.0 8.0 0.00 0.00 0.00 66 1015.9
20260905055042 81 63 3.0 8.0 0.00 0.00 0.00 65 1015.9
20260905054559 81 96 0.0 7.0 0.00 0.00 0.00 64 1015.9
20260905054044 82 103 3.0 7.0 0.00 0.00 0.00 63 1015.9
20260905053545 82 82 1.0 7.0 0.00 0.00 0.00 63 1015.9
20260905053102 82 354 2.0 10.0 0.00 0.00 0.00 62 1016.0
20260905052547 83 87 1.0 10.0 0.00 0.00 0.00 62 1016.0
20260905052044 83 124 3.0 10.0 0.00 0.00 0.00 61 1016.0
20260905051603 83 123 2.0 6.0 0.00 0.00 0.00 61 1016.0
20260905051043 83 56 2.0 6.0 0.00 0.00 0.00 61 1016.1
20260905050542 83 167 1.0 6.0 0.00 0.00 0.00 60 1016.1
20260905050058 84 75 3.0 6.0 0.00 0.00 0.00 59 1016.1
20260905045542 84 188 2.0 8.0 0.00 0.00 0.00 60 1016.1
20260905045043 83 59 2.0 8.0 0.00 0.00 0.00 59 1016.2
20260905044602 84 92 2.0 8.0 0.00 0.00 0.00 58 1016.2
20260905044043 84 352 2.0 6.0 0.00 0.00 0.00 58 1016.2
20260905043544 84 81 1.0 6.0 0.00 0.00 0.00 58 1016.3
20260905043101 84 230 1.0 10.0 0.00 0.00 0.00 57 1016.3
20260905042543 84 30 2.0 10.0 0.00 0.00 0.00 56 1016.4
20260905042046 85 44 3.0 10.0 0.00 0.00 0.00 56 1016.5
20260905041603 85 125 2.0 6.0 0.00 0.00 0.00 56 1016.5
20260905041043 85 105 1.0 6.0 0.00 0.00 0.00 54 1016.6
20260905040544 87 114 1.0 4.0 0.00 0.00 0.00 51 1016.7
20260905040055 86 301 0.0 5.0 0.00 0.00 0.00 51 1016.8
20260905035545 85 70 2.0 5.0 0.00 0.00 0.00 50 1016.9
20260905035045 85 60 2.0 4.0 0.00 0.00 0.00 50 1017.1
20260905034612 86 296 2.0 4.0 0.00 0.00 0.00 48 1017.1
20260905034043 86 318 1.0 6.0 0.00 0.00 0.00 49 1017.1
20260905033543 85 281 3.0 7.0 0.00 0.00 0.00 48 1017.2
20260905033100 85 53 1.0 7.0 0.00 0.00 0.00 49 1017.3
20260905032542 84 302 2.0 5.0 0.00 0.00 0.00 48 1017.3
20260905032046 84 215 2.0 6.0 0.00 0.00 0.00 49 1017.4
20260905031555 85 0 1.0 6.0 0.00 0.00 0.00 50 1017.6
20260905031044 85 307 1.0 6.0 0.00 0.00 0.00 50 1017.7
20260905030542 85 124 1.0 4.0 0.00 0.00 0.00 51 1017.8
20260905030054 84 243 1.0 3.0 0.00 0.00 0.00 49 1017.9
20260905025544 85 59 1.0 3.0 0.00 0.00 0.00 49 1018.0
20260905025043 85 213 1.0 5.0 0.00 0.00 0.00 52 1018.1
20260905024602 83 0 1.0 5.0 0.00 0.00 0.00 51 1018.2
20260905024043 83 77 0.0 5.0 0.00 0.00 0.00 53 1018.2
20260905023546 82 90 1.0 5.0 0.00 0.00 0.00 56 1018.5